Zurück zum Katalog

ONEWEB-0303

AktivKommunikationPO
NORAD 49187·PAYLOAD·🇬🇧 United Kingdom

Gestartet Sep 14, 2021 von Baikonur Cosmodrome

Loading…

Nächste Überflüge (nächste 24 Stunden)

TLE

AktuellSource: CelesTrak SupGP

Epoche: Sep 14, 2026, 20:40 UTC

1 49187C 21083B   26257.86128889 -.00001477  00000+0 -37505-2 0  2574
2 49187  87.9171 317.6415 0002034 102.9048   7.3004 13.18687971    10

Verfolge ONEWEB-0303 in Echtzeit mit AllMySat

Download on the App Store